Time,TemperatureF,DewpointF,PressureIn,WindDirection,WindDirectionDegrees,WindSpeedMPH,WindSpeedGustMPH,Humidity,HourlyPrecipIn,Conditions,Clouds,dailyrainin,SoftwareType,DateUTC
2013-08-01 00:02:00,66.7,65.0,29.95,NNE,17,0.0,0.0,95,0.00,,,0.00,weatherlink.com 1.10,2013-08-01 04:02:00,
2013-08-01 00:17:00,66.6,66.0,29.95,NNE,17,0.0,0.0,96,0.00,,,0.00,weatherlink.com 1.10,2013-08-01 04:17:00,
2013-08-01 00:32:00,66.5,65.0,29.95,NNE,17,0.0,0.0,96,0.00,,,0.00,weatherlink.com 1.10,2013-08-01 04:32:00,
2013-08-01 00:47:00,66.2,65.0,29.94,NNE,17,0.0,0.0,96,0.00,,,0.00,weatherlink.com 1.10,2013-08-01 04:47:00,
2013-08-01 01:02:00,66.1,65.0,29.95,NNE,17,0.0,0.0,96,0.00,,,0.00,weatherlink.com 1.10,2013-08-01 05:02:00,
2013-08-01 01:17:00,66.0,65.0,29.95,NNE,17,0.0,0.0,96,0.00,,,0.00,weatherlink.com 1.10,2013-08-01 05:17:00,
2013-08-01 01:32:00,66.1,65.0,29.94,NNE,17,0.0,0.0,97,0.00,,,0.00,weatherlink.com 1.10,2013-08-01 05:32:00,
2013-08-01 01:47:00,66.0,65.0,29.94,NNE,17,0.0,0.0,96,0.00,,,0.00,weatherlink.com 1.10,2013-08-01 05:47:00,
2013-08-01 02:02:00,66.0,65.0,29.94,NNE,17,0.0,0.0,97,0.00,,,0.00,weatherlink.com 1.10,2013-08-01 06:02:00,
2013-08-01 02:18:00,66.1,65.0,29.94,NNE,17,0.0,0.0,97,0.00,,,0.00,weatherlink.com 1.10,2013-08-01 06:18:00,
2013-08-01 02:33:00,66.3,66.0,29.93,NNE,17,0.0,0.0,97,0.00,,,0.00,weatherlink.com 1.10,2013-08-01 06:33:00,
2013-08-01 02:48:00,66.5,66.0,29.93,NNE,17,0.0,0.0,97,0.00,,,0.00,weatherlink.com 1.10,2013-08-01 06:48:00,
2013-08-01 03:03:00,66.7,66.0,29.93,NNE,17,0.0,0.0,97,0.00,,,0.00,weatherlink.com 1.10,2013-08-01 07:03:00,
2013-08-01 03:18:00,66.8,66.0,29.93,NNE,15,0.0,1.0,97,0.00,,,0.00,weatherlink.com 1.10,2013-08-01 07:18:00,
2013-08-01 03:33:00,67.1,66.0,29.93,NNE,15,0.0,1.0,97,0.00,,,0.00,weatherlink.com 1.10,2013-08-01 07:33:00,
2013-08-01 03:48:00,67.4,67.0,29.93,NNE,15,0.0,0.0,98,0.00,,,0.00,weatherlink.com 1.10,2013-08-01 07:48:00,
2013-08-01 04:03:00,67.7,67.0,29.93,NNE,15,0.0,1.0,98,0.00,,,0.00,weatherlink.com 1.10,2013-08-01 08:03:00,
2013-08-01 04:18:00,68.3,68.0,29.93,West,261,2.0,3.0,98,0.00,,,0.00,weatherlink.com 1.10,2013-08-01 08:18:00,
2013-08-01 04:33:00,68.5,68.0,29.93,West,261,0.0,4.0,98,0.00,,,0.00,weatherlink.com 1.10,2013-08-01 08:33:00,
2013-08-01 04:48:00,68.6,68.0,29.93,WSW,252,0.0,4.0,98,0.00,,,0.00,weatherlink.com 1.10,2013-08-01 08:48:00,
2013-08-01 05:03:00,68.6,68.0,29.93,WSW,256,0.0,3.0,97,0.00,,,0.00,weatherlink.com 1.10,2013-08-01 09:03:00,
2013-08-01 05:33:00,68.4,68.0,29.93,WNW,286,0.0,4.0,97,0.00,,,0.00,weatherlink.com 1.10,2013-08-01 09:33:00,
2013-08-01 05:48:00,68.3,67.0,29.93,NW,314,1.0,6.0,96,0.00,,,0.00,weatherlink.com 1.10,2013-08-01 09:48:00,
2013-08-01 06:03:00,68.1,67.0,29.94,NW,314,0.0,3.0,95,0.00,,,0.00,weatherlink.com 1.10,2013-08-01 10:03:00,
2013-08-01 06:18:00,67.9,67.0,29.94,NW,315,1.0,2.0,96,0.00,,,0.00,weatherlink.com 1.10,2013-08-01 10:18:00,
2013-08-01 06:33:00,67.8,66.0,29.95,NNW,329,0.0,3.0,95,0.00,,,0.00,weatherlink.com 1.10,2013-08-01 10:33:00,
2013-08-01 07:03:00,67.4,66.0,29.96,North,351,0.0,5.0,95,0.00,,,0.00,weatherlink.com 1.10,2013-08-01 11:03:00,
2013-08-01 07:48:00,67.4,66.0,29.97,NNW,348,0.0,3.0,95,0.00,,,0.00,weatherlink.com 1.10,2013-08-01 11:48:00,
2013-08-01 08:33:00,68.0,66.0,29.98,NNW,344,0.0,2.0,94,0.00,,,0.00,weatherlink.com 1.10,2013-08-01 12:33:00,
2013-08-01 08:48:00,68.5,67.0,29.98,North,355,2.0,4.0,93,0.00,,,0.00,weatherlink.com 1.10,2013-08-01 12:48:00,
2013-08-01 09:18:00,69.6,66.0,29.99,North,350,3.0,4.0,89,0.00,,,0.00,weatherlink.com 1.10,2013-08-01 13:18:00,
2013-08-01 09:48:00,70.4,67.0,29.99,WSW,239,3.0,5.0,89,0.00,,,0.00,weatherlink.com 1.10,2013-08-01 13:48:00,
2013-08-01 10:33:00,73.1,68.0,30.00,NNE,20,4.0,4.0,84,0.00,,,0.00,weatherlink.com 1.10,2013-08-01 14:33:00,
2013-08-01 12:04:00,76.1,66.0,30.00,WSW,238,4.0,4.0,72,0.00,,,0.00,weatherlink.com 1.10,2013-08-01 16:04:00,
2013-08-01 12:34:00,78.0,67.0,30.00,West,263,1.0,8.0,70,0.00,,,0.00,weatherlink.com 1.10,2013-08-01 16:34:00,
2013-08-01 13:04:00,78.6,67.0,30.00,NNW,348,1.0,8.0,67,0.00,,,0.00,weatherlink.com 1.10,2013-08-01 17:04:00,
2013-08-01 13:19:00,80.0,66.0,29.99,NE,38,5.0,8.0,63,0.00,,,0.00,weatherlink.com 1.10,2013-08-01 17:19:00,
2013-08-01 13:49:00,81.2,65.0,29.99,North,11,2.0,8.0,59,0.00,,,0.00,weatherlink.com 1.10,2013-08-01 17:49:00,
2013-08-01 14:04:00,81.9,65.0,29.98,NNW,334,4.0,9.0,57,0.00,,,0.00,weatherlink.com 1.10,2013-08-01 18:04:00,
2013-08-01 14:34:00,83.4,65.0,29.98,SW,228,4.0,7.0,54,0.00,,,0.00,weatherlink.com 1.10,2013-08-01 18:34:00,
2013-08-01 14:49:00,83.4,66.0,29.98,NW,306,4.0,6.0,55,0.00,,,0.00,weatherlink.com 1.10,2013-08-01 18:49:00,
2013-08-01 15:04:00,83.8,65.0,29.98,North,360,3.0,10.0,53,0.00,,,0.00,weatherlink.com 1.10,2013-08-01 19:04:00,
2013-08-01 15:19:00,84.1,64.0,29.98,NNE,26,5.0,12.0,51,0.00,,,0.00,weatherlink.com 1.10,2013-08-01 19:19:00,
2013-08-01 15:34:00,84.7,66.0,29.98,SW,227,1.0,7.0,53,0.00,,,0.00,weatherlink.com 1.10,2013-08-01 19:34:00,
2013-08-01 15:49:00,85.0,65.0,29.97,NW,326,0.0,9.0,52,0.00,,,0.00,weatherlink.com 1.10,2013-08-01 19:49:00,
2013-08-01 16:04:00,84.4,63.0,29.97,NW,311,0.0,5.0,48,0.00,,,0.00,weatherlink.com 1.10,2013-08-01 20:04:00,
2013-08-01 16:19:00,83.0,65.0,29.97,WNW,302,2.0,4.0,55,0.00,,,0.00,weatherlink.com 1.10,2013-08-01 20:19:00,
2013-08-01 16:49:00,85.4,62.0,29.96,West,273,1.0,6.0,46,0.00,,,0.00,weatherlink.com 1.10,2013-08-01 20:49:00,
2013-08-01 17:04:00,85.9,63.0,29.96,NNE,30,4.0,10.0,46,0.00,,,0.00,weatherlink.com 1.10,2013-08-01 21:04:00,
2013-08-01 17:19:00,85.4,63.0,29.96,North,350,2.0,10.0,48,0.00,,,0.00,weatherlink.com 1.10,2013-08-01 21:19:00,
2013-08-01 17:34:00,84.9,64.0,29.96,West,273,3.0,6.0,49,0.00,,,0.00,weatherlink.com 1.10,2013-08-01 21:34:00,
2013-08-01 17:49:00,83.6,64.0,29.96,NW,319,2.0,7.0,51,0.00,,,0.00,weatherlink.com 1.10,2013-08-01 21:49:00,
2013-08-01 18:04:00,84.3,65.0,29.95,NW,316,0.0,6.0,52,0.00,,,0.00,weatherlink.com 1.10,2013-08-01 22:04:00,
2013-08-01 18:19:00,83.9,63.0,29.95,WNW,286,2.0,6.0,49,0.00,,,0.00,weatherlink.com 1.10,2013-08-01 22:19:00,
2013-08-01 18:34:00,84.1,63.0,29.95,WSW,250,4.0,5.0,50,0.00,,,0.00,weatherlink.com 1.10,2013-08-01 22:34:00,
2013-08-01 18:49:00,83.4,62.0,29.94,West,265,2.0,7.0,49,0.00,,,0.00,weatherlink.com 1.10,2013-08-01 22:49:00,
2013-08-01 19:04:00,83.6,62.0,29.94,WSW,257,1.0,4.0,48,0.00,,,0.00,weatherlink.com 1.10,2013-08-01 23:04:00,
2013-08-01 19:19:00,83.1,63.0,29.94,NW,314,0.0,5.0,50,0.00,,,0.00,weatherlink.com 1.10,2013-08-01 23:19:00,
2013-08-01 19:34:00,81.7,62.0,29.94,NW,314,0.0,3.0,51,0.00,,,0.00,weatherlink.com 1.10,2013-08-01 23:34:00,
2013-08-01 20:04:00,79.4,64.0,29.94,NW,314,0.0,1.0,59,0.00,,,0.00,weatherlink.com 1.10,2013-08-02 00:04:00,
2013-08-01 20:19:00,76.9,65.0,29.94,NW,314,0.0,1.0,66,0.00,,,0.00,weatherlink.com 1.10,2013-08-02 00:19:00,
2013-08-01 20:34:00,74.4,65.0,29.94,NW,314,0.0,1.0,72,0.00,,,0.00,weatherlink.com 1.10,2013-08-02 00:34:00,
2013-08-01 21:19:00,70.1,64.0,29.95,NW,315,0.0,0.0,82,0.00,,,0.00,weatherlink.com 1.10,2013-08-02 01:19:00,
2013-08-01 21:34:00,69.0,64.0,29.96,NW,315,0.0,1.0,84,0.00,,,0.00,weatherlink.com 1.10,2013-08-02 01:34:00,
2013-08-01 21:49:00,68.1,64.0,29.95,NW,315,0.0,0.0,85,0.00,,,0.00,weatherlink.com 1.10,2013-08-02 01:49:00,
2013-08-01 22:04:00,67.2,63.0,29.96,NW,315,0.0,2.0,87,0.00,,,0.00,weatherlink.com 1.10,2013-08-02 02:04:00,
2013-08-01 22:19:00,66.5,63.0,29.96,NW,315,0.0,0.0,88,0.00,,,0.00,weatherlink.com 1.10,2013-08-02 02:19:00,
2013-08-01 22:34:00,65.9,62.0,29.96,NW,315,0.0,0.0,88,0.00,,,0.00,weatherlink.com 1.10,2013-08-02 02:34:00,
2013-08-01 22:49:00,65.2,62.0,29.96,NW,315,0.0,0.0,89,0.00,,,0.00,weatherlink.com 1.10,2013-08-02 02:49:00,
2013-08-01 23:04:00,64.6,62.0,29.96,NW,315,0.0,0.0,90,0.00,,,0.00,weatherlink.com 1.10,2013-08-02 03:04:00,
2013-08-01 23:20:00,64.1,62.0,29.96,NW,315,0.0,0.0,91,0.00,,,0.00,weatherlink.com 1.10,2013-08-02 03:20:00,
2013-08-01 23:34:00,63.8,62.0,29.96,NW,315,0.0,0.0,92,0.00,,,0.00,weatherlink.com 1.10,2013-08-02 03:34:00,
2013-08-01 23:50:00,63.5,61.0,29.97,NW,315,0.0,0.0,92,0.00,,,0.00,weatherlink.com 1.10,2013-08-02 03:50:00,